Weather in Rassvet

Russia / Irkutsk Oblast     53°33′22″N   103°26′06″E
temp.,
°C
wind,
m/s
gust,
m/s
humid.,
%
clouds,
%
prec.,
mm/h
press.,
hPa
HPBL,
m
2 july, sat
sat223:00+23sse2246100 0.0 99612
02:00+21nw225493 0.0 99836
05:00+16nw5109734 0.0 999291
08:00+18nw5687100 0.1 1000469
11:00+17wnw6789100 0.1 1000471
14:00+19wnw338299 0.2 999548
17:00+19wnw4683100 1.1 999532
20:00+16wnw4893100 1.4 1002360
3 july, sun
sun323:00+15wnw71293100 0.0 1004529
02:00+13nw51091100 0.0 1006536
05:00+12wnw499174 0.0 1007327
08:00+14nw45817 0.0 1008416
11:00+17nnw456450 0.0 1008794
14:00+20nw45490 0.0 10061227
17:00+21nw45454 0.0 1005963
20:00+19nnw34595 0.0 100580
4 july, mon
mon423:00+14n11705 0.0 100610
02:00+13ne1173100 0.0 100610
05:00+13ene1173100 0.0 100610
08:00+15n2368100 0.0 1006153
11:00+18nw3362100 0.0 1006375
14:00+19wnw3458100 0.0 1006325
17:00+20nw1251100 0.0 1006444
20:00+16nnw236397 0.2 100652
5 july, tue
tue523:00+15ene117697 0.1 100611
02:00+13sw118389 0.3 100711
05:00+11nnw118412 0.0 100710
08:00+15nnw127480 0.0 1007184
11:00+20nnw236099 0.0 1006489
14:00+23nw3344100 0.0 10041156
17:00+22nne124950 0.0 1003335
20:00+21ese11565 0.0 100313
6 july, wed
wed623:00+16sse1162100 0.0 100411
02:00+14ese116787 0.0 100311
05:00+13e01734 0.0 100211
08:00+17ne11620 0.0 1002173
11:00+22nnw21510 0.0 1001629
14:00+24nw33400 0.0 10001256
17:00+25nnw23377 0.0 9981081
20:00+23n225194 0.0 99825